Location: Observatoire
(46.1952°N, 5.3391°E)
Time: 21:24:43
(UTC+01:00)

Tiros 1 despin weight - Pass Details

Date: 19 February 2026
Orbit: 556 x 593 km, 48.2° (Epoch: 3 March)

Event Time Altitude Azimuth Distance (km) Brightness Sun altitude
Rises 21:30:58 0° 283° (WNW) 2,735 ? -34.9°
Reaches altitude 10° 21:33:47 10° 263° (W) 1,839 ? -35.3°
Enters shadow 21:34:04 11° 260° (W) 1,763 ? -35.4°
Maximum altitude 21:36:36 18° 221° (SW) 1,415 - -35.8°
Drops below altitude 10° 21:39:25 10° 179° (S) 1,841 - -36.2°
Sets 21:42:15 0° 159° (SSE) 2,739 - -36.6°
